Buffalo, NY

9:34 PM EST on December 15, 2019 (GMT -0500)
Buffalo Niagara International

Weather History for KBUF - November, 2019

Change the Weather History Date:

Monday, November 11, 2019

  Actual Average Record
Temperature  
Mean Temperature 31 °F 42 °F  
Max Temperature 36 °F 50 °F 70 °F (2012)
Min Temperature 25 °F 35 °F 19 °F (1957)
Degree Days  
Heating Degree Days 34 23  
Month to date heating degree days 303 231  
Since 1 July heating degree days 737 836  
Cooling Degree Days 0 0  
Month to date cooling degree days 0 0  
Year to date cooling degree days 604 544  
Moisture  
Dew Point 27 °F    
Average Humidity 87    
Maximum Humidity 92    
Minimum Humidity 81    
Precipitation  
Precipitation 0.81 in 0.13 in 1.40 in (1995)
Month to date precipitation 1.43 1.43  
Year to date precipitation 41.91 34.01  
Snow  
Snow 8.70 in 0.20 in 5.30 in (1942)
Month to date snowfall 9.5 1.7  
Since 1 July snowfall 9.5 2.6  
Since 1 September snowfall 9.5 2.6  
Snow Depth T in    
Sea Level Pressure  
Sea Level Pressure 30.09 in    
Wind  
Wind Speed 13 mph (NE)    
Max Wind Speed 22 mph    
Max Gust Speed 27 mph    
Visibility 2 miles    
Events Fog , Rain , Snow    
T = Trace of Precipitation, MM = Missing Value Source: NWS Daily Summary

Daily Weather History Graph

Daily Weather History Graph

Search for Another Location

Airport or City:

Astronomy

Nov. 11, 2019 Rise Set
Actual Time 7:01 AM EST 4:55 PM EST
Civil Twilight 6:31 AM EST 5:25 PM EST
Nautical Twilight 5:57 AM EST 5:59 PM EST
Astronomical Twilight 5:24 AM EST 6:33 PM EST
Moon 4:52 PM EST (11/11) 5:48 AM EST (11/11)
Length of Visible Light 10h 54m
Length of Day
9h 53m
Waxing Gibbous, 99% of the Moon is Illuminated
Nov 11
Waxing Gibbous
Nov 12
Full
Nov 19
Last Quarter
Nov 26
New
Dec 4
First Quarter

Hourly Weather History & Observations

Time (EST) Temp. Windchill Dew Point Humidity Pressure Visibility Wind Dir Wind Speed Gust Speed Precip Events Conditions
12:54 AM 36.0 °F 30.3 °F 33.1 °F 89% 30.08 in 9.0 mi North 6.9 mph - 0.02 in Rain Light Rain
1:54 AM 34.0 °F 26.0 °F 32.0 °F 92% 30.10 in 5.0 mi NNE 10.4 mph - 0.00 in Snow Light Snow
2:20 AM 33.1 °F 23.4 °F 30.0 °F 89% 30.08 in 2.5 mi NNE 13.8 mph - 0.01 in Snow Light Snow
2:25 AM 33.1 °F 23.4 °F 30.0 °F 89% 30.08 in 2.5 mi NNE 13.8 mph - 0.01 in Snow Light Snow
2:31 AM 33.8 °F 24.3 °F 30.2 °F 87% 30.08 in 3.0 mi NNE 13.8 mph - N/A Snow Light Snow
2:54 AM 33.1 °F 24.9 °F 30.0 °F 89% 30.11 in 7.0 mi NNE 10.4 mph - 0.01 in Snow Light Snow
3:04 AM 33.1 °F 25.5 °F 30.0 °F 89% 30.10 in 9.0 mi NNE 9.2 mph - 0.00 in Snow Light Snow
3:26 AM 33.1 °F 26.1 °F 30.0 °F 89% 30.10 in 2.0 mi NNE 8.1 mph - 0.00 in Snow Light Snow
3:37 AM 33.8 °F 28.6 °F 30.2 °F 87% 30.10 in 1.5 mi NNE 5.8 mph - N/A Snow Light Snow
3:54 AM 33.1 °F 27.7 °F 30.9 °F 92% 30.13 in 1.0 mi NNE 5.8 mph - 0.03 in Snow Light Snow
4:14 AM 33.1 °F 26.9 °F 30.9 °F 92% 30.10 in 2.5 mi NNE 6.9 mph - 0.00 in Snow Light Snow
4:33 AM 33.1 °F 27.7 °F 30.9 °F 92% 30.10 in 2.5 mi NE 5.8 mph - 0.01 in Snow Light Snow
4:38 AM 33.1 °F 26.1 °F 30.9 °F 92% 30.10 in 3.0 mi NNE 8.1 mph - 0.01 in Snow Light Snow
4:54 AM 33.1 °F 26.1 °F 30.9 °F 92% 30.13 in 7.0 mi NNE 8.1 mph - 0.01 in Snow Light Snow
5:54 AM 32.0 °F 22.1 °F 28.9 °F 88% 30.14 in 2.5 mi NNE 13.8 mph - 0.00 in Snow Light Snow
6:05 AM 32.0 °F 23.0 °F 28.9 °F 88% 30.13 in 3.0 mi NNE 11.5 mph - 0.00 in Snow Light Snow
6:54 AM 32.0 °F 24.2 °F 28.9 °F 88% 30.15 in 6.0 mi NNE 9.2 mph - 0.00 in Snow Light Snow
7:45 AM 32.0 °F 22.1 °F 28.9 °F 88% 30.14 in 5.0 mi NE 13.8 mph - 0.00 in Snow Light Snow
7:52 AM 32.0 °F 24.2 °F 28.4 °F 87% 30.14 in 2.5 mi NE 9.2 mph - 0.00 in Snow Light Snow
7:54 AM 32.0 °F 22.1 °F 28.9 °F 88% 30.17 in 2.0 mi NNE 13.8 mph - 0.00 in Snow Light Snow
8:05 AM 32.0 °F 22.5 °F 28.9 °F 88% 30.13 in 2.0 mi NE 12.7 mph - 0.00 in Snow Light Snow
8:26 AM 32.0 °F 22.1 °F 28.9 °F 88% 30.14 in 1.8 mi NE 13.8 mph - 0.00 in Snow Light Snow
8:51 AM 32.0 °F 23.6 °F 28.4 °F 87% 30.15 in 1.5 mi NNE 10.4 mph - 0.01 in Snow Light Snow
8:54 AM 32.0 °F 23.0 °F 28.9 °F 88% 30.18 in 1.2 mi NE 11.5 mph - 0.01 in Snow Light Snow
9:22 AM 32.0 °F 23.0 °F 28.9 °F 88% 30.15 in 1.2 mi NE 11.5 mph - 0.00 in Snow Light Snow
9:37 AM 32.0 °F 23.0 °F 28.9 °F 88% 30.16 in 1.0 mi NE 11.5 mph - 0.01 in Snow Light Snow
9:51 AM 32.0 °F 21.6 °F 28.4 °F 87% 30.15 in 0.8 mi NE 15.0 mph - 0.01 in Snow Light Snow
9:54 AM 32.0 °F 21.2 °F 28.9 °F 88% 30.17 in 0.5 mi NE 16.1 mph - 0.02 in Fog , Snow Snow
10:16 AM 32.0 °F 22.5 °F 28.9 °F 88% 30.15 in 1.0 mi NE 12.7 mph - 0.00 in Snow Light Snow
10:28 AM 32.0 °F 23.6 °F 28.9 °F 88% 30.15 in 1.2 mi NE 10.4 mph 20.7 mph 0.01 in Snow Light Snow
10:41 AM 32.0 °F 21.6 °F 28.0 °F 85% 30.14 in 1.5 mi NE 15.0 mph - 0.01 in Snow Light Snow
10:54 AM 32.0 °F 20.5 °F 28.0 °F 85% 30.16 in 1.2 mi NE 18.4 mph 24.2 mph 0.02 in Snow Light Snow
10:56 AM 32.0 °F 20.8 °F 28.0 °F 85% 30.13 in 1.2 mi NE 17.3 mph 24.2 mph 0.00 in Snow Light Snow
11:13 AM 30.9 °F 20.7 °F 28.0 °F 89% 30.12 in 0.8 mi NE 13.8 mph - 0.00 in Snow Light Snow
11:20 AM 30.9 °F 20.7 °F 28.0 °F 89% 30.12 in 1.0 mi NE 13.8 mph 23.0 mph 0.00 in Snow Light Snow
11:32 AM 30.9 °F 20.2 °F 28.0 °F 89% 30.11 in 2.0 mi NE 15.0 mph - 0.01 in Snow Light Snow
11:42 AM 30.9 °F 21.7 °F 28.0 °F 89% 30.11 in 1.5 mi NE 11.5 mph - 0.01 in Snow Light Snow
11:54 AM 30.9 °F 20.2 °F 28.0 °F 89% 30.13 in 1.5 mi NE 15.0 mph - 0.01 in Snow Light Snow
12:14 PM 30.9 °F 19.4 °F 27.0 °F 85% 30.10 in 0.8 mi NE 17.3 mph - 0.00 in Snow Light Snow
12:43 PM 30.0 °F 18.3 °F 27.0 °F 88% 30.09 in 1.0 mi NE 17.3 mph - 0.02 in Snow Light Snow
12:54 PM 30.0 °F 20.0 °F 27.0 °F 88% 30.12 in 0.8 mi NE 12.7 mph - 0.02 in Snow Light Snow
1:47 PM 28.9 °F 16.9 °F 25.0 °F 85% 30.08 in 1.0 mi NE 17.3 mph 25.3 mph 0.02 in Snow Light Snow
1:54 PM 28.9 °F 18.2 °F 25.0 °F 85% 30.10 in 1.0 mi NE 13.8 mph 23.0 mph 0.02 in Snow Light Snow
2:06 PM 28.4 °F 16.2 °F 24.8 °F 86% 30.07 in 0.8 mi NE 17.3 mph 23.0 mph N/A Snow Light Snow
2:19 PM 28.0 °F 15.3 °F 25.0 °F 88% 30.06 in 1.0 mi NE 18.4 mph - 0.01 in Snow Light Snow
2:39 PM 28.0 °F 14.9 °F 25.0 °F 88% 30.05 in 1.8 mi NE 19.6 mph - 0.02 in Snow Light Snow
2:47 PM 28.0 °F 15.7 °F 24.1 °F 85% 30.05 in 2.5 mi NE 17.3 mph 27.6 mph 0.02 in Snow Light Snow
2:54 PM 28.0 °F 15.7 °F 24.1 °F 85% 30.09 in 3.0 mi NE 17.3 mph - 0.02 in Snow Light Snow
3:00 PM 28.0 °F 16.1 °F 24.1 °F 85% 30.06 in 2.5 mi NE 16.1 mph 23.0 mph 0.00 in Snow Light Snow
3:21 PM 28.0 °F 15.7 °F 24.1 °F 85% 30.07 in 3.0 mi NE 17.3 mph 24.2 mph 0.01 in Snow Light Snow
3:46 PM 28.0 °F 16.5 °F 24.1 °F 85% 30.06 in 2.5 mi NE 15.0 mph 25.3 mph 0.01 in Snow Light Snow
3:54 PM 28.0 °F 16.1 °F 24.1 °F 85% 30.08 in 1.5 mi NNE 16.1 mph 21.9 mph 0.01 in Snow Light Snow
4:08 PM 27.0 °F 15.2 °F 24.1 °F 89% 30.05 in 0.5 mi NE 15.0 mph - 0.01 in Fog , Snow Snow
4:47 PM 27.0 °F 14.7 °F 23.0 °F 85% 30.04 in 0.8 mi NE 16.1 mph 25.3 mph 0.03 in Snow Light Snow
4:54 PM 27.0 °F 15.2 °F 24.1 °F 89% 30.06 in 0.8 mi NE 15.0 mph - 0.03 in Snow Light Snow
4:56 PM 27.0 °F 15.2 °F 24.1 °F 89% 30.03 in 0.8 mi NE 15.0 mph - 0.00 in Snow Light Snow
5:24 PM 27.0 °F 16.7 °F 24.1 °F 89% 30.03 in 0.8 mi NE 11.5 mph - 0.02 in Snow Light Snow
5:54 PM 27.0 °F 15.6 °F 23.0 °F 85% 30.06 in 0.8 mi NE 13.8 mph 24.2 mph 0.05 in Snow Light Snow
6:40 PM 26.1 °F 14.5 °F 23.0 °F 88% 30.01 in 0.5 mi NNE 13.8 mph - 0.04 in Fog , Snow Snow
6:54 PM 26.1 °F 14.0 °F 23.0 °F 88% 30.04 in 0.5 mi NNE 15.0 mph - 0.04 in Fog , Snow Snow
7:15 PM 26.1 °F 14.5 °F 23.0 °F 88% 30.00 in 0.5 mi NNE 13.8 mph - 0.01 in Fog , Snow Snow
7:54 PM 26.1 °F 15.0 °F 23.0 °F 88% 30.01 in 0.5 mi NNE 12.7 mph - 0.04 in Fog , Snow Snow
8:18 PM 26.1 °F 14.0 °F 23.0 °F 88% 29.98 in 1.0 mi NNE 15.0 mph - 0.02 in Snow Light Snow
8:30 PM 26.1 °F 15.0 °F 23.0 °F 88% 29.98 in 0.8 mi NNE 12.7 mph 21.9 mph 0.03 in Snow Light Snow
8:54 PM 26.1 °F 14.5 °F 23.0 °F 88% 30.01 in 0.8 mi NNE 13.8 mph - 0.05 in Snow Light Snow
9:54 PM 26.1 °F 15.0 °F 21.9 °F 84% 29.98 in 0.5 mi NNE 12.7 mph - 0.04 in Fog , Snow Snow
10:54 PM 26.1 °F 16.2 °F 21.9 °F 84% 29.99 in 0.8 mi North 10.4 mph - 0.05 in Snow Light Snow
11:19 PM 25.0 °F 14.2 °F 21.9 °F 88% 29.95 in 0.8 mi NNE 11.5 mph - 0.02 in Snow Light Snow
11:35 PM 25.0 °F 13.6 °F 21.9 °F 88% 29.95 in 0.5 mi NNE 12.7 mph 20.7 mph 0.03 in Fog , Snow Snow
11:54 PM 25.0 °F 16.3 °F 21.9 °F 88% 29.97 in 0.5 mi NNE 8.1 mph - 0.05 in Fog , Snow Snow